ACA201 CYYC-CYVR

Flight info

Callsign ACA201
Flight time 0h 56m
Altitude 36000
Route BOTAG Q894 BOOTH CANUC6
Aircraft A321/M-SDE3FGHIRWY/LB1

Departure

Time 2026-05-07 13:54
Airport Calgary International Airport (CYYC)

Arrival

Time 2026-05-07 14:50
Airport Vancouver International Airport (CYVR)
Time Latitude Longitude Altitude Speed Heading
2026-05-07 13:35 51.12903 -114.00769 3566 ft 0 kts 274°
2026-05-07 13:44 51.12905 -114.00755 3566 ft 2 kts 240°
2026-05-07 13:44 51.12909 -114.00731 3566 ft 2 kts 276°
2026-05-07 13:44 51.12907 -114.00703 3565 ft 2 kts 272°
2026-05-07 13:45 51.12906 -114.00676 3565 ft 1 kts 274°
2026-05-07 13:45 51.12906 -114.00655 3564 ft 2 kts 252°
2026-05-07 13:45 51.12917 -114.00630 3564 ft 2 kts 215°
2026-05-07 13:45 51.12930 -114.00621 3564 ft 0 kts 185°
2026-05-07 13:46 51.12938 -114.00621 3564 ft 0 kts 182°
2026-05-07 13:47 51.12937 -114.00621 3564 ft 0 kts 183°
2026-05-07 13:47 51.12922 -114.00624 3564 ft 5 kts 188°
2026-05-07 13:47 51.12865 -114.00634 3564 ft 10 kts 184°
2026-05-07 13:47 51.12782 -114.00640 3563 ft 12 kts 182°
2026-05-07 13:48 51.12682 -114.00644 3561 ft 14 kts 178°
2026-05-07 13:48 51.12613 -114.00512 3560 ft 15 kts 92°
2026-05-07 13:48 51.12613 -114.00329 3563 ft 12 kts 89°
2026-05-07 13:48 51.12615 -114.00158 3564 ft 12 kts 89°
2026-05-07 13:49 51.12616 -114.00034 3569 ft 6 kts 89°
2026-05-07 13:49 51.12616 -113.99947 3571 ft 9 kts 92°
2026-05-07 13:49 51.12614 -113.99792 3574 ft 14 kts 91°
2026-05-07 13:49 51.12611 -113.99570 3574 ft 18 kts 91°
2026-05-07 13:50 51.12514 -113.99440 3574 ft 17 kts 180°
2026-05-07 13:50 51.12369 -113.99445 3571 ft 18 kts 182°
2026-05-07 13:50 51.12219 -113.99443 3570 ft 19 kts 179°
2026-05-07 13:50 51.12065 -113.99441 3567 ft 20 kts 181°
2026-05-07 13:51 51.11895 -113.99447 3562 ft 21 kts 179°
2026-05-07 13:51 51.11718 -113.99445 3559 ft 22 kts 181°
2026-05-07 13:51 51.11539 -113.99451 3555 ft 22 kts 181°
2026-05-07 13:51 51.11354 -113.99458 3552 ft 23 kts 181°
2026-05-07 13:52 51.11176 -113.99452 3552 ft 21 kts 179°
2026-05-07 13:52 51.11059 -113.99408 3553 ft 13 kts 128°
2026-05-07 13:52 51.11039 -113.99247 3554 ft 12 kts 91°
2026-05-07 13:52 51.11039 -113.99082 3556 ft 10 kts 89°
2026-05-07 13:53 51.11077 -113.99049 3557 ft 24 kts
2026-05-07 13:53 51.11599 -113.99041 3558 ft 105 kts
2026-05-07 13:53 51.12705 -113.99043 3575 ft 168 kts 359°
2026-05-07 13:53 51.14233 -113.99024 3935 ft 192 kts
2026-05-07 13:54 51.15733 -113.98930 4952 ft 184 kts
2026-05-07 13:54 51.17178 -113.99089 5819 ft 183 kts 339°
2026-05-07 13:54 51.18200 -114.00983 6446 ft 206 kts 291°
2026-05-07 13:54 51.18071 -114.03960 7045 ft 240 kts 258°
2026-05-07 13:55 51.17419 -114.07120 7725 ft 257 kts 258°
2026-05-07 13:55 51.16737 -114.10548 8423 ft 275 kts 258°
2026-05-07 13:55 51.16043 -114.14106 9324 ft 282 kts 258°
2026-05-07 13:55 51.15334 -114.17765 10341 ft 285 kts 258°
2026-05-07 13:56 51.14608 -114.21568 11028 ft 301 kts 258°
2026-05-07 13:56 51.13862 -114.25472 11596 ft 318 kts 258°
2026-05-07 13:56 51.13058 -114.29678 12314 ft 330 kts 258°
2026-05-07 13:56 51.12288 -114.33684 13158 ft 335 kts 258°
2026-05-07 13:57 51.11504 -114.37753 14022 ft 338 kts 257°
2026-05-07 13:57 51.10712 -114.41863 14857 ft 341 kts 257°
2026-05-07 13:57 51.09906 -114.46034 15673 ft 345 kts 257°
2026-05-07 13:57 51.09098 -114.50217 16424 ft 350 kts 257°
2026-05-07 13:58 51.08288 -114.54394 17147 ft 354 kts 257°
2026-05-07 13:58 51.07436 -114.58780 17888 ft 357 kts 257°
2026-05-07 13:58 51.06692 -114.63016 18606 ft 359 kts 260°
2026-05-07 13:58 51.05978 -114.67535 19353 ft 362 kts 259°
2026-05-07 13:59 51.05246 -114.72194 20085 ft 365 kts 260°
2026-05-07 13:59 51.04489 -114.76998 20829 ft 368 kts 260°
2026-05-07 13:59 51.03725 -114.81822 21507 ft 373 kts 260°
2026-05-07 13:59 51.02949 -114.86648 22183 ft 376 kts 260°
2026-05-07 14:00 51.02163 -114.91517 22837 ft 379 kts 260°
2026-05-07 14:00 51.01374 -114.96380 23476 ft 382 kts 260°
2026-05-07 14:00 51.00583 -115.01250 24100 ft 385 kts 260°
2026-05-07 14:00 50.99776 -115.06203 24735 ft 387 kts 261°
2026-05-07 14:01 50.98980 -115.11078 25315 ft 389 kts 261°
2026-05-07 14:01 50.98203 -115.15830 25834 ft 392 kts 261°
2026-05-07 14:01 50.97432 -115.20534 26242 ft 397 kts 261°
2026-05-07 14:01 50.96630 -115.25417 26612 ft 402 kts 261°
2026-05-07 14:02 50.95811 -115.30380 27058 ft 405 kts 261°
2026-05-07 14:02 50.94973 -115.35438 27528 ft 407 kts 261°
2026-05-07 14:02 50.94097 -115.40694 27979 ft 409 kts 261°
2026-05-07 14:02 50.93241 -115.45820 28422 ft 411 kts 261°
2026-05-07 14:03 50.92371 -115.51028 28839 ft 413 kts 261°
2026-05-07 14:03 50.91499 -115.56235 29278 ft 414 kts 261°
2026-05-07 14:03 50.90646 -115.61314 29652 ft 416 kts 261°
2026-05-07 14:03 50.89800 -115.66336 29983 ft 418 kts 260°
2026-05-07 14:04 50.88959 -115.71295 30405 ft 418 kts 260°
2026-05-07 14:04 50.88134 -115.76154 30868 ft 416 kts 260°
2026-05-07 14:04 50.87264 -115.81252 31338 ft 415 kts 261°
2026-05-07 14:04 50.86362 -115.86531 31813 ft 413 kts 261°
2026-05-07 14:05 50.85484 -115.91660 32285 ft 411 kts 261°
2026-05-07 14:05 50.84576 -115.96945 32771 ft 408 kts 261°
2026-05-07 14:05 50.83706 -116.02001 33187 ft 406 kts 261°
2026-05-07 14:05 50.82841 -116.07015 33560 ft 405 kts 261°
2026-05-07 14:06 50.82001 -116.11855 33909 ft 404 kts 262°
2026-05-07 14:06 50.81099 -116.17057 34265 ft 403 kts 262°
2026-05-07 14:06 50.80217 -116.22129 34575 ft 402 kts 262°
2026-05-07 14:06 50.79329 -116.27220 34789 ft 403 kts 262°
2026-05-07 14:07 50.78427 -116.32373 34968 ft 404 kts 262°
2026-05-07 14:07 50.77515 -116.37573 35146 ft 405 kts 262°
2026-05-07 14:07 50.76604 -116.42732 35356 ft 405 kts 262°
2026-05-07 14:07 50.75689 -116.47883 35518 ft 407 kts 261°
2026-05-07 14:08 50.74713 -116.53026 35683 ft 408 kts 260°
2026-05-07 14:08 50.73699 -116.58232 35870 ft 409 kts 261°
2026-05-07 14:08 50.72675 -116.63475 36013 ft 409 kts 260°
2026-05-07 14:09 50.70702 -116.73579 36029 ft 410 kts 259°
2026-05-07 14:09 50.68790 -116.83330 36037 ft 409 kts 260°
2026-05-07 14:10 50.66748 -116.93703 36041 ft 409 kts 260°
2026-05-07 14:10 50.64704 -117.04034 36049 ft 410 kts 259°
2026-05-07 14:11 50.62656 -117.14339 36056 ft 410 kts 260°
2026-05-07 14:11 50.60600 -117.24621 36050 ft 409 kts 260°
2026-05-07 14:12 50.58576 -117.34688 36051 ft 408 kts 259°
2026-05-07 14:12 50.56524 -117.44852 36041 ft 409 kts 259°
2026-05-07 14:13 50.54471 -117.54955 36032 ft 409 kts 260°
2026-05-07 14:13 50.52399 -117.65113 36040 ft 410 kts 259°
2026-05-07 14:14 50.50372 -117.74983 36047 ft 411 kts 259°
2026-05-07 14:14 50.48309 -117.85001 36054 ft 411 kts 259°
2026-05-07 14:15 50.46214 -117.95111 36058 ft 411 kts 259°
2026-05-07 14:15 50.44094 -118.05289 36052 ft 411 kts 259°
2026-05-07 14:16 50.41984 -118.15370 36042 ft 410 kts 259°
2026-05-07 14:16 50.39854 -118.25504 36042 ft 411 kts 259°
2026-05-07 14:17 50.37726 -118.35561 36043 ft 410 kts 259°
2026-05-07 14:17 50.35576 -118.45677 36049 ft 411 kts 259°
2026-05-07 14:18 50.33412 -118.55814 36050 ft 411 kts 259°
2026-05-07 14:18 50.31258 -118.65855 36058 ft 411 kts 258°
2026-05-07 14:19 50.29126 -118.75733 36065 ft 412 kts 258°
2026-05-07 14:19 50.26981 -118.85641 36069 ft 410 kts 258°
2026-05-07 14:20 50.24798 -118.95661 36071 ft 410 kts 258°
2026-05-07 14:20 50.22613 -119.05644 36067 ft 410 kts 258°
2026-05-07 14:21 50.20451 -119.15482 36068 ft 409 kts 258°
2026-05-07 14:21 50.18269 -119.25362 36066 ft 408 kts 258°
2026-05-07 14:22 50.16072 -119.35261 36070 ft 409 kts 258°
2026-05-07 14:22 50.13866 -119.45149 36085 ft 410 kts 258°
2026-05-07 14:23 50.11657 -119.55016 36092 ft 410 kts 258°
2026-05-07 14:23 50.09439 -119.64862 36083 ft 411 kts 258°
2026-05-07 14:24 50.07288 -119.74381 36087 ft 411 kts 258°
2026-05-07 14:24 50.06206 -119.79144 35946 ft 410 kts 258°
2026-05-07 14:24 50.05130 -119.83871 36248 ft 410 kts 258°
2026-05-07 14:24 50.04010 -119.88783 36142 ft 409 kts 258°
2026-05-07 14:25 50.02887 -119.93702 36182 ft 409 kts 257°
2026-05-07 14:25 50.00658 -120.03423 36109 ft 410 kts 258°
2026-05-07 14:26 49.98412 -120.13174 36100 ft 411 kts 258°
2026-05-07 14:26 49.96169 -120.22878 36103 ft 410 kts 258°
2026-05-07 14:27 49.93927 -120.32520 36108 ft 409 kts 258°
2026-05-07 14:27 49.91672 -120.42168 36112 ft 409 kts 258°
2026-05-07 14:28 49.89455 -120.51631 36098 ft 410 kts 258°
2026-05-07 14:28 49.87246 -120.61015 36099 ft 410 kts 258°
2026-05-07 14:28 49.86150 -120.65648 35882 ft 412 kts 257°
2026-05-07 14:29 49.85060 -120.70244 35567 ft 411 kts 257°
2026-05-07 14:29 49.83948 -120.74927 35232 ft 408 kts 257°
2026-05-07 14:29 49.82830 -120.79618 34881 ft 406 kts 258°
2026-05-07 14:29 49.81690 -120.84399 34554 ft 404 kts 258°
2026-05-07 14:30 49.80528 -120.89268 34198 ft 404 kts 258°
2026-05-07 14:30 49.79358 -120.94160 33859 ft 407 kts 258°
2026-05-07 14:30 49.78181 -120.99082 33521 ft 408 kts 258°
2026-05-07 14:30 49.77007 -121.03980 33137 ft 408 kts 257°
2026-05-07 14:31 49.75831 -121.08861 32564 ft 411 kts 257°
2026-05-07 14:31 49.74627 -121.13858 31760 ft 412 kts 257°
2026-05-07 14:31 49.73430 -121.18806 30922 ft 412 kts 257°
2026-05-07 14:31 49.72224 -121.23774 30067 ft 414 kts 257°
2026-05-07 14:32 49.71035 -121.28665 29361 ft 412 kts 256°
2026-05-07 14:32 49.69844 -121.33549 28829 ft 410 kts 256°
2026-05-07 14:32 49.68632 -121.38493 28236 ft 407 kts 256°
2026-05-07 14:32 49.67437 -121.43368 27651 ft 403 kts 256°
2026-05-07 14:33 49.66244 -121.48226 27066 ft 400 kts 256°
2026-05-07 14:33 49.65081 -121.52953 26482 ft 396 kts 256°
2026-05-07 14:33 49.63921 -121.57663 25919 ft 392 kts 256°
2026-05-07 14:33 49.62775 -121.62303 25347 ft 389 kts 256°
2026-05-07 14:34 49.61641 -121.66885 24780 ft 385 kts 255°
2026-05-07 14:34 49.60527 -121.71372 24223 ft 383 kts 255°
2026-05-07 14:34 49.59417 -121.75840 23678 ft 380 kts 255°
2026-05-07 14:34 49.58316 -121.80263 23137 ft 377 kts 255°
2026-05-07 14:35 49.57212 -121.84694 22606 ft 374 kts 254°
2026-05-07 14:35 49.56089 -121.89189 22025 ft 373 kts 254°
2026-05-07 14:35 49.54986 -121.93593 21430 ft 372 kts 254°
2026-05-07 14:35 49.53883 -121.97987 20839 ft 371 kts 254°
2026-05-07 14:36 49.52707 -122.02422 20244 ft 372 kts 251°
2026-05-07 14:36 49.51333 -122.06665 19647 ft 374 kts 246°
2026-05-07 14:36 49.49740 -122.10786 19027 ft 375 kts 243°
2026-05-07 14:36 49.48069 -122.14929 18418 ft 374 kts 242°
2026-05-07 14:37 49.46442 -122.18967 17822 ft 373 kts 243°
2026-05-07 14:37 49.43200 -122.27149 16657 ft 371 kts 242°
2026-05-07 14:37 49.41589 -122.31210 16045 ft 371 kts 242°
2026-05-07 14:38 49.39955 -122.35304 15427 ft 369 kts 241°
2026-05-07 14:38 49.38241 -122.39367 14832 ft 368 kts 239°
2026-05-07 14:38 49.36534 -122.43320 14259 ft 366 kts 238°
2026-05-07 14:38 49.34817 -122.47289 13629 ft 365 kts 238°
2026-05-07 14:39 49.33096 -122.51273 13014 ft 362 kts 238°
2026-05-07 14:39 49.31422 -122.55146 12435 ft 360 kts 238°
2026-05-07 14:39 49.29753 -122.59010 11853 ft 357 kts 238°
2026-05-07 14:39 49.28130 -122.62762 11497 ft 347 kts 238°
2026-05-07 14:40 49.26598 -122.66295 11328 ft 332 kts 237°
2026-05-07 14:40 49.25151 -122.69664 11147 ft 318 kts 240°
2026-05-07 14:40 49.24394 -122.73330 10883 ft 303 kts 270°
2026-05-07 14:40 49.24719 -122.77035 10469 ft 298 kts 283°
2026-05-07 14:41 49.25215 -122.80697 9957 ft 296 kts 283°
2026-05-07 14:41 49.25678 -122.84298 9558 ft 293 kts 282°
2026-05-07 14:41 49.26109 -122.87859 9222 ft 288 kts 282°
2026-05-07 14:41 49.26516 -122.91309 9026 ft 276 kts 281°
2026-05-07 14:42 49.26885 -122.94490 8799 ft 267 kts 281°
2026-05-07 14:42 49.27258 -122.97711 8477 ft 263 kts 281°
2026-05-07 14:42 49.27628 -123.00918 8139 ft 259 kts 282°
2026-05-07 14:42 49.27983 -123.03998 7942 ft 252 kts 282°
2026-05-07 14:43 49.28341 -123.07018 7555 ft 253 kts 282°
2026-05-07 14:43 49.28707 -123.10086 7176 ft 251 kts 282°
2026-05-07 14:43 49.29074 -123.13192 6807 ft 248 kts 282°
2026-05-07 14:43 49.29442 -123.16303 6440 ft 246 kts 281°
2026-05-07 14:44 49.29803 -123.19401 6087 ft 244 kts 281°
2026-05-07 14:44 49.30168 -123.22533 5727 ft 243 kts 282°
2026-05-07 14:44 49.30522 -123.25555 5392 ft 241 kts 282°
2026-05-07 14:44 49.30867 -123.28631 5343 ft 238 kts 281°
2026-05-07 14:45 49.31199 -123.31708 4930 ft 239 kts 281°
2026-05-07 14:45 49.31525 -123.34742 4607 ft 234 kts 280°
2026-05-07 14:45 49.31824 -123.37695 4386 ft 226 kts 275°
2026-05-07 14:45 49.31309 -123.40385 4151 ft 215 kts 228°
2026-05-07 14:46 49.29783 -123.41647 3857 ft 197 kts 191°
2026-05-07 14:46 49.28236 -123.41483 3492 ft 181 kts 160°
2026-05-07 14:46 49.27018 -123.40422 3183 ft 167 kts 143°
2026-05-07 14:46 49.25943 -123.39226 2839 ft 159 kts 142°
2026-05-07 14:47 49.24918 -123.38101 2425 ft 157 kts 143°
2026-05-07 14:47 49.23891 -123.37011 2039 ft 151 kts 144°
2026-05-07 14:47 49.22914 -123.36002 1970 ft 145 kts 145°
2026-05-07 14:47 49.22207 -123.34685 1940 ft 143 kts 110°
2026-05-07 14:48 49.21946 -123.33012 1732 ft 141 kts 97°
2026-05-07 14:48 49.21792 -123.31309 1501 ft 141 kts 98°
2026-05-07 14:48 49.21619 -123.29633 1274 ft 141 kts 99°
2026-05-07 14:48 49.21435 -123.28014 1066 ft 140 kts 100°
2026-05-07 14:49 49.21251 -123.26429 865 ft 140 kts 100°
2026-05-07 14:49 49.21071 -123.24879 672 ft 139 kts 100°
2026-05-07 14:49 49.20903 -123.23338 474 ft 136 kts 100°
2026-05-07 14:49 49.20731 -123.21851 268 ft 137 kts 101°
2026-05-07 14:50 49.20560 -123.20366 95 ft 135 kts 102°
2026-05-07 14:50 49.20394 -123.18967 19 ft 125 kts 99°
2026-05-07 14:50 49.20264 -123.17884 19 ft 74 kts 98°
2026-05-07 14:50 49.20210 -123.17359 18 ft 29 kts 99°
2026-05-07 14:51 49.20163 -123.17051 15 ft 28 kts 115°
2026-05-07 14:51 49.20054 -123.16799 15 ft 25 kts 128°
2026-05-07 14:51 49.19965 -123.16640 15 ft 10 kts 157°
2026-05-07 14:51 49.19923 -123.16716 15 ft 11 kts 271°
2026-05-07 14:52 49.19930 -123.16846 15 ft 12 kts 280°
2026-05-07 14:52 49.19947 -123.16985 15 ft 12 kts 281°
2026-05-07 14:52 49.19966 -123.17135 15 ft 13 kts 281°
2026-05-07 14:52 49.19984 -123.17292 15 ft 14 kts 280°
2026-05-07 14:53 49.20004 -123.17459 15 ft 14 kts 280°
2026-05-07 14:53 49.20022 -123.17625 16 ft 14 kts 279°
2026-05-07 14:53 49.20039 -123.17798 16 ft 15 kts 278°
2026-05-07 14:53 49.20057 -123.17966 18 ft 14 kts 282°
2026-05-07 14:54 49.20079 -123.18130 17 ft 14 kts 281°
2026-05-07 14:54 49.20101 -123.18310 17 ft 15 kts 281°
2026-05-07 14:54 49.20082 -123.18480 17 ft 15 kts 222°
2026-05-07 14:54 49.19968 -123.18533 15 ft 16 kts 189°
2026-05-07 14:55 49.19848 -123.18559 15 ft 16 kts 188°
2026-05-07 14:55 49.19736 -123.18560 15 ft 11 kts 140°
2026-05-07 14:55 49.19685 -123.18516 15 ft 5 kts 175°
2026-05-07 14:55 49.19653 -123.18523 15 ft 0 kts 197°
2026-05-07 14:56 49.19650 -123.18525 16 ft 0 kts 198°
2026-05-07 14:56 49.19649 -123.18525 16 ft 0 kts 198°